When you browse on this site, cookies collect data to enhance your experience and personalize the content and advertising you see.
Visit our Privacy Policy to learn more. By continuing to use the site, you agree to this use of cookies and data.
  • In Spain
  • List of Countries
  • For 7 days
  • Water Temperature
  • Weather Map
  • Weather Widgets
  • user-avatar
    Login

    Hourly Weather Solwezi

    Today, 21 October, Monday

    Time Temperature Precipitation Wind Pressure Humidity
    00:00 +29°C° 0 mm 4 mps 712 mmHg 63%
    01:00 +29°C° 0 mm 4 mps 712 mmHg 62%
    02:00 +29°C° 0 mm 4 mps 712 mmHg 61%
    03:00 +28°C° 0.5 mm 3 mps 712 mmHg 63%
    04:00 +28°C° 0.5 mm 3 mps 712 mmHg 65%
    05:00 +27°C° 0.5 mm 2 mps 712 mmHg 67%
    06:00 +28°C° 0.4 mm 3 mps 713 mmHg 67%
    07:00 +28°C° 0.4 mm 4 mps 713 mmHg 67%
    08:00 +28°C° 0.4 mm 5 mps 714 mmHg 67%
    09:00 +29°C° 0 mm 5 mps 714 mmHg 65%
    10:00 +30°C° 0 mm 5 mps 714 mmHg 62%
    11:00 +32°C° 0 mm 5 mps 714 mmHg 60%
    12:00 +33°C° 0 mm 5 mps 713 mmHg 56%
    13:00 +34°C° 0 mm 4 mps 712 mmHg 52%
    14:00 +35°C° 0 mm 4 mps 712 mmHg 47%
    15:00 +35°C° 0 mm 3 mps 711 mmHg 46%
    16:00 +35°C° 0 mm 2 mps 711 mmHg 45%
    17:00 +35°C° 0 mm 2 mps 710 mmHg 44%
    18:00 +34°C° 0.2 mm 2 mps 711 mmHg 48%
    19:00 +33°C° 0.2 mm 3 mps 711 mmHg 51%
    20:00 +32°C° 0.2 mm 4 mps 711 mmHg 55%
    21:00 +32°C° 0 mm 4 mps 711 mmHg 56%
    22:00 +32°C° 0 mm 4 mps 711 mmHg 57%
    23:00 +30°C° 0 mm 4 mps 712 mmHg 59%

    Tomorrow, 22 October, Tuesday

    Time Temperature Precipitation Wind Pressure Humidity
    00:00 +30°C° 0 mm 4 mps 711 mmHg 61%
    01:00 +29°C° 0 mm 4 mps 711 mmHg 62%
    02:00 +29°C° 0 mm 3 mps 710 mmHg 64%
    03:00 +29°C° 0 mm 3 mps 710 mmHg 65%
    04:00 +29°C° 0 mm 3 mps 710 mmHg 66%
    05:00 +28°C° 0 mm 3 mps 710 mmHg 67%
    06:00 +29°C° 0 mm 3 mps 711 mmHg 66%
    07:00 +29°C° 0 mm 3 mps 712 mmHg 65%
    08:00 +30°C° 0 mm 3 mps 712 mmHg 64%
    09:00 +31°C° 0 mm 3 mps 712 mmHg 58%
    10:00 +34°C° 0 mm 3 mps 712 mmHg 53%
    11:00 +35°C° 0 mm 3 mps 712 mmHg 47%
    12:00 +36°C° 0 mm 2 mps 712 mmHg 44%
    13:00 +36°C° 0 mm 2 mps 711 mmHg 40%
    14:00 +36°C° 0 mm 1 mps 710 mmHg 37%
    15:00 +36°C° 0 mm 1 mps 710 mmHg 36%
    16:00 +37°C° 0 mm 2 mps 710 mmHg 36%
    17:00 +37°C° 0 mm 2 mps 709 mmHg 36%
    18:00 +36°C° 0.4 mm 3 mps 710 mmHg 41%
    19:00 +34°C° 0.4 mm 4 mps 710 mmHg 47%
    20:00 +32°C° 0.4 mm 4 mps 710 mmHg 52%
    21:00 +32°C° 1.1 mm 4 mps 711 mmHg 55%
    22:00 +30°C° 1.1 mm 4 mps 711 mmHg 58%
    23:00 +30°C° 1.1 mm 4 mps 712 mmHg 61%

    Day after tomorrow, 23 October, Wednesday

    Time Temperature Precipitation Wind Pressure Humidity
    00:00 +29°C° 0.1 mm 5 mps 712 mmHg 64%
    01:00 +28°C° 0.1 mm 6 mps 711 mmHg 67%
    02:00 +28°C° 0.1 mm 7 mps 711 mmHg 71%
    03:00 +28°C° 0 mm 6 mps 711 mmHg 69%
    04:00 +28°C° 0 mm 5 mps 711 mmHg 67%
    05:00 +27°C° 0 mm 4 mps 711 mmHg 65%
    06:00 +28°C° 0 mm 3 mps 712 mmHg 63%
    07:00 +28°C° 0 mm 3 mps 712 mmHg 62%
    08:00 +28°C° 0 mm 2 mps 713 mmHg 61%
    09:00 +29°C° 0 mm 2 mps 713 mmHg 56%
    10:00 +31°C° 0 mm 2 mps 713 mmHg 51%
    11:00 +33°C° 0 mm 3 mps 713 mmHg 46%
    12:00 +34°C° 0 mm 2 mps 712 mmHg 43%
    13:00 +34°C° 0 mm 1 mps 711 mmHg 39%
    14:00 +35°C° 0 mm 1 mps 711 mmHg 36%
    15:00 +35°C° 0 mm 1 mps 711 mmHg 34%
    16:00 +35°C° 0 mm 1 mps 710 mmHg 33%
    17:00 +36°C° 0 mm 1 mps 710 mmHg 31%
    18:00 +35°C° 0 mm 1 mps 711 mmHg 34%
    19:00 +34°C° 0 mm 1 mps 711 mmHg 37%
    20:00 +35°C° 0 mm 2 mps 711 mmHg 40%
    21:00 +34°C° 0 mm 2 mps 711 mmHg 43%
    22:00 +32°C° 0 mm 2 mps 711 mmHg 46%
    23:00 +32°C° 0 mm 2 mps 711 mmHg 49%

    24 October, Thursday

    Time Temperature Precipitation Wind Pressure Humidity
    00:00 +31°C° 0 mm 2 mps 711 mmHg 51%
    01:00 +31°C° 0 mm 2 mps 711 mmHg 53%
    02:00 +30°C° 0 mm 1 mps 711 mmHg 55%
    03:00 +30°C° 0 mm 1 mps 711 mmHg 56%
    04:00 +30°C° 0 mm 1 mps 711 mmHg 57%
    05:00 +29°C° 0 mm 2 mps 711 mmHg 58%
    06:00 +30°C° 0 mm 2 mps 712 mmHg 57%
    07:00 +30°C° 0 mm 2 mps 713 mmHg 56%
    08:00 +30°C° 0 mm 2 mps 713 mmHg 54%
    09:00 +32°C° 0 mm 2 mps 713 mmHg 49%
    10:00 +33°C° 0 mm 1 mps 713 mmHg 44%
    11:00 +32°C° 0 mm 0 mps 713 mmHg 39%
    12:00 +35°C° 0 mm 1 mps 713 mmHg 34%
    13:00 +37°C° 0 mm 2 mps 712 mmHg 29%
    14:00 +38°C° 0 mm 3 mps 711 mmHg 24%
    15:00 +38°C° 0 mm 3 mps 711 mmHg 24%
    16:00 +38°C° 0 mm 3 mps 710 mmHg 24%
    17:00 +38°C° 0 mm 4 mps 710 mmHg 24%
    18:00 +37°C° 0 mm 3 mps 711 mmHg 23%
    19:00 +37°C° 0 mm 3 mps 711 mmHg 23%
    20:00 +36°C° 0 mm 3 mps 711 mmHg 23%
    21:00 +35°C° 0 mm 2 mps 711 mmHg 23%
    22:00 +34°C° 0 mm 2 mps 712 mmHg 24%
    23:00 +34°C° 0 mm 2 mps 712 mmHg 24%

    25 October, Friday

    Time Temperature Precipitation Wind Pressure Humidity
    00:00 +32°C° 0 mm 2 mps 712 mmHg 25%
    01:00 +32°C° 0 mm 2 mps 711 mmHg 25%
    02:00 +31°C° 0 mm 2 mps 711 mmHg 25%
    03:00 +30°C° 0 mm 2 mps 711 mmHg 26%
    04:00 +30°C° 0 mm 2 mps 712 mmHg 27%
    05:00 +29°C° 0 mm 2 mps 712 mmHg 28%
    06:00 +30°C° 0 mm 2 mps 712 mmHg 28%
    07:00 +30°C° 0 mm 2 mps 713 mmHg 28%
    08:00 +31°C° 0 mm 2 mps 714 mmHg 27%
    09:00 +33°C° 0 mm 3 mps 714 mmHg 25%
    10:00 +35°C° 0 mm 5 mps 714 mmHg 23%
    11:00 +36°C° 0 mm 6 mps 714 mmHg 21%
    12:00 +37°C° 0 mm 5 mps 713 mmHg 20%
    13:00 +37°C° 0 mm 5 mps 712 mmHg 19%
    14:00 +39°C° 0 mm 5 mps 711 mmHg 18%
    15:00 +39°C° 0 mm 5 mps 711 mmHg 18%
    16:00 +37°C° 0 mm 4 mps 711 mmHg 19%
    17:00 +37°C° 0 mm 4 mps 711 mmHg 19%
    18:00 +36°C° 0 mm 4 mps 711 mmHg 21%
    19:00 +35°C° 0 mm 3 mps 711 mmHg 22%
    20:00 +35°C° 0 mm 3 mps 712 mmHg 23%
    21:00 +34°C° 0 mm 3 mps 712 mmHg 24%
    22:00 +33°C° 0 mm 3 mps 712 mmHg 24%
    23:00 +33°C° 0 mm 4 mps 712 mmHg 24%

    26 October, Saturday

    Time Temperature Precipitation Wind Pressure Humidity
    00:00 +32°C° 0 mm 4 mps 712 mmHg 24%
    01:00 +32°C° 0 mm 4 mps 711 mmHg 24%
    02:00 +32°C° 0 mm 4 mps 711 mmHg 24%
    03:00 +30°C° 0 mm 4 mps 712 mmHg 25%
    04:00 +30°C° 0 mm 4 mps 712 mmHg 26%
    05:00 +29°C° 0 mm 4 mps 712 mmHg 26%
    06:00 +30°C° 0 mm 5 mps 712 mmHg 26%
    07:00 +30°C° 0 mm 5 mps 713 mmHg 25%
    08:00 +32°C° 0 mm 6 mps 714 mmHg 25%
    09:00 +33°C° 0 mm 6 mps 714 mmHg 22%
    10:00 +34°C° 0 mm 6 mps 714 mmHg 20%
    11:00 +36°C° 0 mm 6 mps 714 mmHg 18%
    12:00 +38°C° 0 mm 6 mps 713 mmHg 17%
    13:00 +38°C° 0 mm 6 mps 712 mmHg 16%
    14:00 +39°C° 0 mm 6 mps 711 mmHg 15%
    15:00 +39°C° 0 mm 6 mps 711 mmHg 15%
    16:00 +37°C° 0 mm 5 mps 711 mmHg 16%
    17:00 +37°C° 0 mm 5 mps 711 mmHg 16%
    18:00 +36°C° 0 mm 4 mps 711 mmHg 17%
    19:00 +35°C° 0 mm 4 mps 711 mmHg 18%
    20:00 +34°C° 0 mm 3 mps 712 mmHg 19%
    21:00 +33°C° 0 mm 3 mps 712 mmHg 19%
    22:00 +33°C° 0 mm 3 mps 712 mmHg 19%
    23:00 +31°C° 0 mm 3 mps 712 mmHg 19%

    27 October, Sunday

    Time Temperature Precipitation Wind Pressure Humidity
    00:00 +32°C° 0 mm 4 mps 712 mmHg 20%
    01:00 +30°C° 0 mm 4 mps 712 mmHg 20%
    02:00 +29°C° 0 mm 4 mps 711 mmHg 21%
    03:00 +29°C° 0 mm 5 mps 711 mmHg 21%
    04:00 +29°C° 0 mm 5 mps 712 mmHg 21%
    05:00 +28°C° 0 mm 5 mps 712 mmHg 22%
    06:00 +28°C° 0 mm 5 mps 712 mmHg 21%
    07:00 +29°C° 0 mm 6 mps 713 mmHg 21%
    08:00 +29°C° 0 mm 6 mps 713 mmHg 21%
    09:00 +32°C° 0 mm 6 mps 713 mmHg 19%
    10:00 +33°C° 0 mm 6 mps 713 mmHg 17%
    11:00 +35°C° 0 mm 6 mps 713 mmHg 15%
    12:00 +36°C° 0 mm 6 mps 713 mmHg 14%
    13:00 +36°C° 0 mm 6 mps 712 mmHg 13%
    14:00 +38°C° 0 mm 6 mps 711 mmHg 12%
    15:00 +37°C° 0 mm 5 mps 711 mmHg 13%
    16:00 +37°C° 0 mm 4 mps 711 mmHg 13%
    17:00 +36°C° 0 mm 4 mps 711 mmHg 14%
    18:00 +35°C° 0 mm 3 mps 711 mmHg 14%
    19:00 +34°C° 0 mm 3 mps 711 mmHg 15%
    20:00 +33°C° 0 mm 3 mps 712 mmHg 16%
    21:00 +33°C° 0 mm 3 mps 712 mmHg 16%
    22:00 +31°C° 0 mm 3 mps 712 mmHg 16%
    23:00 +30°C° 0 mm 3 mps 712 mmHg 17%
    Show more